QPF
0.00 0.00 0.00 0.00 0.00 0.00 0.00 0.00 0.00 0.00 0.00 0.00 0.00 0.00 0.00 0.00 0.00 0.00 0.00 0.00 0.00 0.00 0.00 0.00 0.00 0.00 0.00 0.00 0.00 0.00 0.00 0.00 0.00 0.00 0.00 0.00 0.00 0.00 0.00 0.00 0.01 0.00 0.00
0.00 0.00 0.00 0.00 0.00 0.00 0.00 0.00 0.00 0.00 0.00 0.00 0.00 0.00 0.00 0.00 0.00 0.00 0.00 0.00 0.00 0.00 0.00 0.00 0.00 0.00 0.00 0.00 0.00 0.00 0.00 0.00 0.00 0.00 0.00 0.00 0.00 0.00 0.00 0.00 0.01 0.00 0.00
0.00 0.00 0.00 0.00 0.00 0.00 0.00 0.00 0.00 0.00 0.00 0.00 0.00 0.00 0.00 0.00 0.00 0.00 0.00 0.00 0.00 0.00 0.00 0.00 0.00 0.00 0.00 0.00 0.00 0.00 0.00 0.00 0.00 0.00 0.00 0.01 0.00 0.00 0.00 0.00 0.00 0.00 0.00
0.00 0.00 0.00 0.00 0.00 0.00 0.00 0.00 0.00 0.00 0.00 0.00 0.00 0.00 0.00 0.00 0.00 0.00 0.00 0.00 0.00 0.00 0.00 0.00 0.00 0.00 0.00 0.00 0.00 0.00 0.00 0.00 0.00 0.00 0.00 0.03 0.01 0.00 0.00 0.00 0.00 0.00 0.00
0.00 0.00 0.00 0.00 0.00 0.00 0.00 0.00 0.00 0.00 0.00 0.00 0.00 0.00 0.00 0.00 0.00 0.00 0.00 0.00 0.00 0.00 0.00 0.00 0.00 0.00 0.00 0.00 0.00 0.00 0.00 0.00 0.00 0.00 0.00 0.01 0.01 0.01 0.00 0.00 0.00 0.00 0.00
0.00 0.00 0.00 0.00 0.00 0.00 0.00 0.00 0.00 0.00 0.00 0.00 0.00 0.00 0.00 0.00 0.00 0.00 0.00 0.00 0.00 0.00 0.00 0.00 0.00 0.00 0.00 0.00 0.00 0.00 0.00 0.00 0.00 0.00 0.00 0.01 0.03 0.02 0.00 0.01 0.01 0.01 0.00
0.00 0.00 0.00 0.00 0.00 0.00 0.00 0.00 0.00 0.00 0.00 0.00 0.00 0.00 0.00 0.00 0.00 0.00 0.00 0.00 0.00 0.00 0.00 0.00 0.00 0.00 0.00 0.00 0.00 0.00 0.00 0.00 0.00 0.00 0.00 0.01 0.03 0.02 0.01 0.01 0.02 0.02 0.03
0.00 0.00 0.00 0.00 0.00 0.00 0.00 0.00 0.00 0.00 0.00 0.00 0.00 0.00 0.00 0.00 0.00 0.00 0.00 0.00 0.00 0.00 0.00 0.00 0.00 0.00 0.00 0.00 0.00 0.00 0.00 0.00 0.00 0.00 0.00 0.01 0.01 0.01 0.01 0.01 0.02 0.03 0.04
0.00 0.00 0.00 0.00 0.00 0.00 0.00 0.00 0.00 0.00 0.00 0.00 0.00 0.00 0.00 0.00 0.00 0.00 0.00 0.00 0.00 0.00 0.00 0.00 0.00 0.00 0.00 0.00 0.00 0.00 0.00 0.00 0.00 0.00 0.00 0.00 0.01 0.01 0.01 0.01 0.01 0.02 0.03
0.00 0.00 0.00 0.00 0.00 0.00 0.00 0.00 0.00 0.00 0.00 0.00 0.00 0.00 0.00 0.00 0.00 0.00 0.00 0.00 0.00 0.00 0.00 0.01 0.01 0.00 0.00 0.00 0.00 0.00 0.00 0.00 0.00 0.00 0.00 0.00 0.01 0.01 0.00 0.00 0.00 0.01 0.02
0.00 0.00 0.00 0.00 0.00 0.00 0.00 0.00 0.00 0.00 0.00 0.00 0.00 0.00 0.00 0.00 0.01 0.01 0.00 0.00 0.00 0.00 0.00 0.01 0.02 0.01 0.00 0.01 0.03 0.02 0.00 0.00 0.00 0.00 0.00 0.00 0.00 0.00 0.00 0.00 0.01 0.01 0.01
0.00 0.00 0.00 0.00 0.00 0.00 0.00 0.00 0.00 0.00 0.00 0.00 0.01 0.01 0.01 0.03 0.04 0.01 0.01 0.01 0.01 0.00 0.00 0.01 0.02 0.01 0.03 0.07 0.20 0.13 0.02 0.02 0.01 0.00 0.00 0.00 0.00 0.00 0.01 0.01 0.01 0.01 0.01
0.00 0.00 0.00 0.00 0.00 0.00 0.00 0.00 0.00 0.00 0.01 0.00 0.01 0.03 0.05 0.05 0.02 0.00 0.00 0.01 0.00 0.00 0.02 0.06 0.08 0.04 0.11 0.14 0.15 0.11 0.02 0.01 0.01 0.00 0.01 0.00 0.00 0.00 0.01 0.01 0.01 0.01 0.01
0.00 0.00 0.00 0.00 0.00 0.00 0.00 0.00 0.00 0.00 0.00 0.00 0.01 0.01 0.02 0.03 0.02 0.01 0.00 0.00 0.01 0.03 0.05 0.06 0.10 0.07 0.05 0.05 0.04 0.02 0.00 0.00 0.01 0.01 0.02 0.01 0.00 0.00 0.01 0.01 0.01 0.01 0.01
0.00 0.00 0.00 0.00 0.00 0.00 0.00 0.00 0.00 0.00 0.00 0.00 0.00 0.01 0.01 0.02 0.01 0.00 0.00 0.00 0.00 0.01 0.04 0.06 0.03 0.05 0.04 0.02 0.01 0.00 0.00 0.00 0.00 0.00 0.01 0.01 0.00 0.00 0.00 0.01 0.01 0.01 0.01
0.00 0.00 0.00 0.00 0.00 0.00 0.00 0.00 0.00 0.00 0.00 0.00 0.00 0.00 0.00 0.00 0.00 0.01 0.01 0.02 0.01 0.01 0.02 0.04 0.03 0.06 0.04 0.03 0.01 0.00 0.00 0.00 0.00 0.00 0.00 0.00 0.00 0.00 0.00 0.01 0.01 0.02 0.02
0.00 0.00 0.00 0.00 0.00 0.00 0.00 0.00 0.00 0.00 0.00 0.00 0.00 0.00 0.00 0.00 0.02 0.03 0.03 0.03 0.03 0.02 0.03 0.04 0.05 0.05 0.05 0.04 0.03 0.02 0.01 0.00 0.00 0.00 0.00 0.00 0.00 0.00 0.00 0.01 0.02 0.02 0.02
0.00 0.00 0.00 0.00 0.00 0.00 0.00 0.00 0.00 0.00 0.00 0.00 0.00 0.00 0.01 0.01 0.04 0.07 0.06 0.04 0.07 0.06 0.07 0.10 0.08 0.10 0.13 0.10 0.07 0.04 0.02 0.02 0.01 0.00 0.00 0.00 0.00 0.00 0.01 0.02 0.02 0.02 0.02
0.00 0.00 0.00 0.00 0.00 0.00 0.00 0.00 0.00 0.00 0.00 0.01 0.01 0.02 0.02 0.04 0.06 0.11 0.10 0.11 0.14 0.13 0.14 0.10 0.15 0.24 0.23 0.20 0.12 0.06 0.02 0.02 0.01 0.01 0.02 0.01 0.00 0.00 0.00 0.01 0.01 0.02 0.02
0.00 0.00 0.01 0.01 0.02 0.03 0.03 0.03 0.02 0.01 0.01 0.01 0.03 0.05 0.06 0.10 0.13 0.16 0.12 0.16 0.18 0.18 0.17 0.18 0.22 0.24 0.24 0.26 0.16 0.10 0.07 0.06 0.03 0.01 0.01 0.00 0.00 0.00 0.00 0.00 0.02 0.03 0.03
0.00 0.01 0.04 0.07 0.10 0.11 0.12 0.09 0.10 0.08 0.08 0.07 0.08 0.08 0.11 0.13 0.16 0.17 0.15 0.20 0.20 0.19 0.19 0.21 0.27 0.32 0.30 0.32 0.28 0.21 0.12 0.05 0.03 0.02 0.01 0.00 0.00 0.00 0.00 0.00 0.01 0.03 0.04
0.01 0.03 0.07 0.11 0.15 0.16 0.17 0.16 0.15 0.16 0.11 0.11 0.12 0.12 0.11 0.13 0.16 0.18 0.20 0.19 0.21 0.22 0.23 0.26 0.32 0.34 0.32 0.40 0.40 0.37 0.27 0.14 0.06 0.03 0.04 0.04 0.01 0.00 0.00 0.00 0.01 0.02 0.03
0.02 0.03 0.06 0.11 0.14 0.17 0.20 0.20 0.16 0.17 0.11 0.13 0.17 0.16 0.15 0.15 0.16 0.17 0.17 0.18 0.20 0.22 0.23 0.25 0.31 0.34 0.34 0.40 0.43 0.41 0.34 0.25 0.16 0.09 0.06 0.03 0.02 0.02 0.01 0.01 0.00 0.02 0.05
0.01 0.01 0.03 0.07 0.11 0.13 0.17 0.19 0.16 0.16 0.13 0.16 0.23 0.22 0.18 0.15 0.17 0.17 0.18 0.19 0.19 0.19 0.21 0.24 0.30 0.35 0.34 0.31 0.36 0.37 0.33 0.28 0.22 0.13 0.08 0.06 0.03 0.03 0.03 0.02 0.01 0.02 0.06
0.00 0.01 0.02 0.04 0.06 0.08 0.10 0.12 0.12 0.11 0.12 0.14 0.19 0.18 0.15 0.14 0.13 0.11 0.13 0.15 0.16 0.17 0.19 0.23 0.27 0.31 0.33 0.33 0.34 0.35 0.32 0.29 0.25 0.16 0.10 0.09 0.06 0.04 0.03 0.03 0.04 0.05 0.07
0.00 0.00 0.01 0.02 0.03 0.05 0.07 0.08 0.08 0.08 0.11 0.13 0.15 0.16 0.17 0.16 0.13 0.11 0.12 0.13 0.13 0.17 0.20 0.23 0.25 0.27 0.29 0.30 0.29 0.30 0.27 0.24 0.23 0.19 0.11 0.10 0.09 0.05 0.03 0.05 0.06 0.07 0.07
MSLP
1008.79 1008.91 1009.25 1009.79 1010.46 1011.17 1011.80 1012.30 1012.63 1012.82 1012.92 1013.02 1013.18 1013.43 1013.76 1014.15 1014.53 1014.86 1015.08 1015.20 1015.23 1015.20 1015.16 1015.16 1015.21 1015.31 1015.45 1015.59 1015.71 1015.79 1015.83 1015.86 1015.87 1015.91 1015.98 1016.08 1016.22 1016.36 1016.50 1016.62 1016.72 1016.79 1016.85
1008.64 1008.93 1009.42 1010.09 1010.84 1011.56 1012.17 1012.59 1012.84 1012.94 1012.99 1013.06 1013.22 1013.51 1013.90 1014.36 1014.80 1015.16 1015.40 1015.51 1015.51 1015.46 1015.40 1015.39 1015.44 1015.55 1015.70 1015.84 1015.96 1016.02 1016.03 1016.01 1015.98 1015.98 1016.03 1016.13 1016.27 1016.43 1016.60 1016.75 1016.86 1016.95 1017.02
1008.49 1008.93 1009.57 1010.35 1011.16 1011.91 1012.50 1012.87 1013.06 1013.10 1013.10 1013.15 1013.31 1013.61 1014.03 1014.51 1014.97 1015.34 1015.57 1015.66 1015.65 1015.58 1015.53 1015.53 1015.60 1015.73 1015.90 1016.05 1016.15 1016.18 1016.14 1016.07 1015.99 1015.94 1015.96 1016.04 1016.19 1016.37 1016.57 1016.75 1016.90 1017.03 1017.13
1008.32 1008.88 1009.64 1010.51 1011.39 1012.16 1012.74 1013.10 1013.25 1013.26 1013.24 1013.28 1013.43 1013.74 1014.15 1014.62 1015.05 1015.39 1015.59 1015.66 1015.64 1015.58 1015.55 1015.59 1015.70 1015.87 1016.06 1016.21 1016.29 1016.29 1016.20 1016.06 1015.93 1015.83 1015.81 1015.88 1016.02 1016.22 1016.44 1016.65 1016.84 1017.01 1017.15
1008.12 1008.78 1009.61 1010.56 1011.48 1012.28 1012.87 1013.23 1013.39 1013.41 1013.39 1013.43 1013.59 1013.88 1014.27 1014.69 1015.08 1015.36 1015.52 1015.57 1015.54 1015.51 1015.52 1015.60 1015.77 1015.98 1016.19 1016.35 1016.42 1016.37 1016.23 1016.04 1015.84 1015.70 1015.65 1015.69 1015.82 1016.02 1016.25 1016.49 1016.71 1016.91 1017.09
1007.92 1008.63 1009.51 1010.49 1011.44 1012.26 1012.88 1013.27 1013.45 1013.51 1013.53 1013.60 1013.77 1014.04 1014.39 1014.76 1015.08 1015.31 1015.42 1015.44 1015.42 1015.41 1015.46 1015.60 1015.82 1016.08 1016.32 1016.48 1016.52 1016.44 1016.25 1016.01 1015.76 1015.58 1015.49 1015.51 1015.62 1015.81 1016.04 1016.27 1016.51 1016.73 1016.94
1007.78 1008.49 1009.38 1010.36 1011.31 1012.14 1012.78 1013.20 1013.44 1013.55 1013.63 1013.74 1013.93 1014.20 1014.52 1014.83 1015.09 1015.25 1015.32 1015.32 1015.30 1015.32 1015.42 1015.61 1015.88 1016.17 1016.42 1016.57 1016.59 1016.48 1016.25 1015.96 1015.68 1015.46 1015.35 1015.34 1015.43 1015.60 1015.81 1016.03 1016.25 1016.46 1016.68
1007.74 1008.42 1009.27 1010.21 1011.14 1011.95 1012.60 1013.05 1013.34 1013.52 1013.66 1013.82 1014.04 1014.31 1014.61 1014.88 1015.09 1015.21 1015.24 1015.22 1015.21 1015.25 1015.38 1015.61 1015.90 1016.20 1016.45 1016.59 1016.58 1016.44 1016.18 1015.87 1015.56 1015.33 1015.19 1015.16 1015.24 1015.38 1015.56 1015.75 1015.94 1016.12 1016.32
1007.81 1008.44 1009.23 1010.10 1010.97 1011.74 1012.36 1012.83 1013.15 1013.38 1013.58 1013.79 1014.04 1014.33 1014.62 1014.87 1015.05 1015.14 1015.15 1015.13 1015.13 1015.18 1015.33 1015.56 1015.86 1016.15 1016.38 1016.49 1016.45 1016.28 1016.00 1015.67 1015.35 1015.11 1014.97 1014.94 1015.00 1015.13 1015.28 1015.43 1015.58 1015.73 1015.90
1007.96 1008.54 1009.25 1010.04 1010.82 1011.52 1012.09 1012.53 1012.86 1013.12 1013.35 1013.61 1013.89 1014.20 1014.49 1014.74 1014.91 1015.00 1015.01 1014.99 1014.99 1015.05 1015.20 1015.43 1015.70 1015.96 1016.15 1016.23 1016.16 1015.96 1015.66 1015.33 1015.02 1014.79 1014.66 1014.64 1014.70 1014.82 1014.95 1015.08 1015.20 1015.31 1015.43
1008.14 1008.66 1009.30 1009.99 1010.67 1011.28 1011.78 1012.17 1012.47 1012.72 1012.97 1013.24 1013.55 1013.87 1014.18 1014.45 1014.63 1014.73 1014.76 1014.76 1014.76 1014.82 1014.96 1015.16 1015.40 1015.62 1015.77 1015.81 1015.71 1015.49 1015.19 1014.86 1014.56 1014.34 1014.23 1014.22 1014.30 1014.43 1014.57 1014.70 1014.80 1014.88 1014.97
1008.24 1008.73 1009.30 1009.91 1010.49 1011.00 1011.41 1011.73 1011.97 1012.19 1012.42 1012.69 1013.01 1013.34 1013.67 1013.96 1014.17 1014.30 1014.36 1014.38 1014.40 1014.47 1014.59 1014.76 1014.96 1015.14 1015.25 1015.25 1015.14 1014.90 1014.60 1014.28 1013.99 1013.79 1013.69 1013.71 1013.81 1013.97 1014.13 1014.28 1014.40 1014.48 1014.54
1008.19 1008.66 1009.19 1009.73 1010.22 1010.64 1010.97 1011.21 1011.40 1011.56 1011.76 1012.01 1012.31 1012.65 1013.00 1013.31 1013.56 1013.73 1013.82 1013.87 1013.92 1013.98 1014.09 1014.25 1014.42 1014.57 1014.66 1014.64 1014.51 1014.28 1013.98 1013.66 1013.38 1013.18 1013.10 1013.12 1013.25 1013.43 1013.64 1013.83 1013.98 1014.09 1014.16
1007.93 1008.41 1008.92 1009.41 1009.85 1010.21 1010.47 1010.65 1010.77 1010.89 1011.04 1011.25 1011.53 1011.87 1012.22 1012.55 1012.83 1013.04 1013.18 1013.27 1013.34 1013.42 1013.53 1013.68 1013.84 1013.98 1014.06 1014.05 1013.94 1013.72 1013.43 1013.11 1012.81 1012.60 1012.50 1012.52 1012.64 1012.85 1013.10 1013.34 1013.54 1013.69 1013.79
1007.49 1007.98 1008.48 1008.97 1009.39 1009.71 1009.94 1010.08 1010.17 1010.25 1010.36 1010.53 1010.78 1011.09 1011.44 1011.78 1012.09 1012.34 1012.52 1012.65 1012.75 1012.85 1012.98 1013.13 1013.30 1013.45 1013.56 1013.57 1013.49 1013.29 1013.00 1012.68 1012.36 1012.10 1011.95 1011.93 1012.03 1012.23 1012.50 1012.79 1013.05 1013.26 1013.41
1006.95 1007.44 1007.95 1008.44 1008.87 1009.20 1009.44 1009.58 1009.66 1009.71 1009.79 1009.93 1010.14 1010.43 1010.76 1011.10 1011.42 1011.70 1011.92 1012.08 1012.22 1012.35 1012.50 1012.67 1012.86 1013.05 1013.20 1013.26 1013.21 1013.04 1012.77 1012.42 1012.06 1011.73 1011.50 1011.40 1011.44 1011.60 1011.86 1012.17 1012.49 1012.76 1012.96
1006.45 1006.92 1007.43 1007.93 1008.38 1008.74 1009.01 1009.19 1009.28 1009.34 1009.41 1009.52 1009.69 1009.94 1010.24 1010.57 1010.89 1011.18 1011.43 1011.62 1011.79 1011.95 1012.12 1012.33 1012.56 1012.79 1012.98 1013.10 1013.10 1012.97 1012.71 1012.34 1011.92 1011.50 1011.16 1010.94 1010.88 1010.97 1011.19 1011.49 1011.83 1012.15 1012.41
1006.11 1006.54 1007.02 1007.52 1007.99 1008.40 1008.71 1008.94 1009.07 1009.15 1009.21 1009.29 1009.43 1009.63 1009.89 1010.19 1010.50 1010.80 1011.06 1011.28 1011.47 1011.66 1011.86 1012.10 1012.36 1012.64 1012.88 1013.06 1013.11 1013.02 1012.77 1012.38 1011.90 1011.39 1010.92 1010.57 1010.38 1010.36 1010.50 1010.77 1011.11 1011.46 1011.76
1006.05 1006.40 1006.82 1007.29 1007.76 1008.19 1008.56 1008.83 1009.00 1009.10 1009.16 1009.22 1009.32 1009.47 1009.68 1009.94 1010.23 1010.51 1010.78 1011.01 1011.23 1011.44 1011.66 1011.92 1012.21 1012.52 1012.82 1013.05 1013.15 1013.10 1012.87 1012.47 1011.94 1011.35 1010.77 1010.28 1009.95 1009.81 1009.85 1010.05 1010.36 1010.72 1011.05
1006.30 1006.53 1006.86 1007.26 1007.70 1008.14 1008.52 1008.82 1009.03 1009.14 1009.19 1009.22 1009.27 1009.36 1009.51 1009.72 1009.98 1010.25 1010.51 1010.76 1010.99 1011.21 1011.45 1011.72 1012.03 1012.37 1012.70 1012.97 1013.12 1013.12 1012.92 1012.53 1011.98 1011.33 1010.67 1010.07 1009.62 1009.35 1009.28 1009.41 1009.67 1010.01 1010.37
1006.81 1006.91 1007.11 1007.41 1007.79 1008.19 1008.56 1008.86 1009.07 1009.18 1009.21 1009.20 1009.18 1009.21 1009.30 1009.46 1009.67 1009.92 1010.18 1010.43 1010.67 1010.90 1011.15 1011.42 1011.74 1012.09 1012.44 1012.74 1012.95 1012.99 1012.84 1012.50 1011.97 1011.31 1010.60 1009.94 1009.39 1009.03 1008.86 1008.91 1009.11 1009.43 1009.78
1007.49 1007.44 1007.50 1007.68 1007.96 1008.29 1008.62 1008.89 1009.08 1009.16 1009.15 1009.08 1009.00 1008.95 1008.97 1009.07 1009.24 1009.46 1009.71 1009.96 1010.21 1010.45 1010.70 1010.97 1011.28 1011.63 1012.00 1012.33 1012.57 1012.68 1012.61 1012.33 1011.86 1011.24 1010.55 1009.87 1009.29 1008.86 1008.63 1008.60 1008.75 1009.03 1009.36
1008.17 1008.00 1007.93 1007.98 1008.15 1008.39 1008.65 1008.87 1009.01 1009.05 1008.98 1008.84 1008.69 1008.56 1008.50 1008.54 1008.66 1008.85 1009.08 1009.33 1009.58 1009.83 1010.08 1010.35 1010.66 1011.00 1011.37 1011.72 1012.01 1012.18 1012.19 1012.02 1011.65 1011.12 1010.51 1009.87 1009.30 1008.86 1008.60 1008.52 1008.61 1008.84 1009.15
1008.72 1008.46 1008.29 1008.23 1008.30 1008.45 1008.63 1008.79 1008.87 1008.85 1008.72 1008.51 1008.28 1008.07 1007.94 1007.90 1007.96 1008.12 1008.34 1008.58 1008.83 1009.08 1009.33 1009.60 1009.90 1010.23 1010.60 1010.97 1011.30 1011.54 1011.65 1011.59 1011.35 1010.96 1010.46 1009.92 1009.41 1009.00 1008.73 1008.62 1008.68 1008.86 1009.12
1009.06 1008.76 1008.53 1008.40 1008.39 1008.47 1008.59 1008.69 1008.71 1008.63 1008.44 1008.17 1007.86 1007.57 1007.36 1007.25 1007.25 1007.36 1007.55 1007.79 1008.03 1008.28 1008.54 1008.80 1009.09 1009.41 1009.78 1010.16 1010.52 1010.83 1011.03 1011.09 1010.99 1010.75 1010.39 1009.97 1009.56 1009.21 1008.97 1008.85 1008.87 1009.00 1009.20
1009.16 1008.87 1008.63 1008.48 1008.43 1008.47 1008.55 1008.61 1008.59 1008.46 1008.22 1007.89 1007.52 1007.16 1006.87 1006.69 1006.63 1006.69 1006.84 1007.05 1007.29 1007.54 1007.79 1008.05 1008.33 1008.65 1009.01 1009.39 1009.78 1010.14 1010.41 1010.58 1010.61 1010.51 1010.29 1010.01 1009.71 1009.44 1009.24 1009.13 1009.12 1009.19 1009.33
Thickness
5852 5844 5836 5831 5827 5824 5821 5817 5814 5810 5806 5802 5799 5796 5793 5790 5787 5785 5782 5780 5778 5776 5774 5772 5770 5768 5767 5766 5764 5762 5761 5759 5758 5756 5754 5753 5752 5751 5750 5749 5749 5749 5747
5856 5845 5837 5832 5828 5824 5820 5817 5814 5810 5807 5803 5799 5796 5793 5790 5787 5784 5782 5780 5778 5775 5773 5771 5769 5768 5766 5765 5763 5761 5760 5759 5757 5756 5755 5753 5752 5750 5749 5749 5750 5748 5747
5854 5845 5837 5832 5828 5823 5820 5817 5814 5810 5807 5803 5800 5796 5793 5790 5787 5785 5782 5780 5777 5775 5773 5771 5769 5767 5765 5764 5762 5761 5760 5759 5758 5756 5755 5755 5753 5751 5750 5748 5748 5747 5746
5853 5844 5838 5831 5827 5823 5819 5816 5813 5810 5807 5803 5800 5797 5793 5790 5787 5785 5782 5780 5777 5775 5773 5771 5769 5767 5765 5763 5762 5761 5760 5759 5759 5758 5758 5757 5756 5753 5751 5749 5747 5746 5745
5853 5845 5836 5831 5826 5822 5818 5815 5812 5810 5806 5803 5800 5797 5794 5791 5788 5785 5783 5780 5778 5776 5773 5771 5769 5767 5765 5764 5762 5761 5760 5759 5760 5760 5762 5762 5759 5755 5753 5750 5748 5746 5745
5853 5844 5835 5830 5825 5821 5817 5814 5811 5809 5806 5803 5800 5797 5794 5791 5788 5786 5783 5781 5778 5776 5774 5772 5770 5767 5765 5764 5762 5761 5760 5760 5760 5762 5764 5764 5761 5758 5755 5752 5749 5747 5746
5855 5844 5834 5829 5824 5820 5817 5814 5811 5808 5806 5803 5800 5797 5794 5791 5789 5786 5784 5781 5779 5777 5775 5773 5771 5769 5767 5765 5763 5762 5761 5760 5760 5763 5765 5767 5764 5760 5757 5754 5751 5749 5747
5858 5845 5834 5828 5824 5819 5816 5813 5810 5808 5805 5802 5800 5797 5794 5791 5789 5786 5784 5782 5779 5777 5775 5773 5771 5770 5768 5766 5764 5762 5761 5760 5763 5765 5767 5768 5766 5763 5760 5757 5754 5752 5750
5861 5846 5835 5829 5823 5819 5815 5812 5810 5807 5804 5801 5799 5796 5793 5791 5788 5786 5784 5782 5780 5778 5776 5774 5772 5771 5769 5767 5766 5764 5763 5762 5762 5764 5768 5770 5768 5765 5762 5759 5757 5754 5752
5859 5846 5838 5831 5825 5820 5815 5812 5809 5806 5803 5801 5798 5796 5793 5791 5789 5786 5785 5783 5781 5779 5777 5775 5774 5772 5771 5769 5768 5766 5765 5763 5764 5766 5768 5770 5769 5766 5763 5761 5758 5756 5755
5854 5848 5841 5834 5827 5822 5818 5814 5809 5806 5803 5800 5798 5795 5793 5792 5790 5788 5787 5785 5782 5780 5778 5777 5775 5774 5773 5772 5771 5769 5767 5766 5768 5770 5773 5774 5770 5767 5765 5762 5760 5758 5756
5847 5846 5844 5837 5830 5826 5823 5818 5812 5808 5805 5801 5800 5797 5794 5793 5793 5793 5791 5787 5784 5782 5780 5778 5777 5775 5774 5774 5775 5773 5770 5771 5772 5775 5777 5775 5772 5769 5766 5764 5762 5760 5758
5847 5845 5844 5839 5833 5829 5826 5820 5816 5813 5810 5804 5802 5800 5797 5796 5795 5795 5793 5789 5785 5783 5781 5781 5779 5777 5777 5777 5777 5776 5775 5776 5778 5779 5779 5776 5773 5770 5767 5765 5763 5761 5759
5845 5843 5843 5840 5833 5830 5828 5825 5820 5817 5814 5810 5806 5803 5800 5797 5797 5797 5796 5793 5789 5786 5784 5784 5782 5781 5780 5780 5779 5779 5778 5778 5779 5780 5779 5776 5774 5771 5769 5766 5764 5762 5760
5842 5842 5841 5838 5832 5828 5825 5823 5821 5819 5817 5813 5811 5805 5802 5799 5796 5796 5795 5793 5790 5789 5787 5784 5783 5782 5781 5780 5780 5780 5780 5780 5780 5781 5780 5777 5775 5773 5771 5768 5766 5763 5761
5842 5840 5840 5835 5831 5825 5821 5818 5817 5817 5815 5813 5810 5807 5802 5799 5797 5795 5793 5790 5787 5786 5785 5783 5782 5780 5779 5778 5778 5779 5779 5779 5779 5780 5780 5778 5776 5774 5772 5770 5768 5765 5763
5842 5840 5836 5831 5828 5821 5817 5814 5812 5812 5811 5809 5807 5805 5802 5798 5795 5793 5789 5786 5784 5783 5781 5779 5777 5775 5774 5774 5773 5774 5775 5775 5776 5777 5777 5777 5776 5774 5772 5771 5768 5766 5764
5841 5836 5833 5830 5824 5818 5812 5809 5808 5807 5807 5807 5805 5802 5799 5796 5792 5789 5785 5783 5781 5779 5777 5773 5771 5768 5766 5765 5764 5766 5768 5770 5771 5773 5774 5775 5775 5775 5774 5770 5768 5766 5763
5836 5831 5826 5823 5819 5813 5808 5804 5801 5801 5801 5801 5800 5798 5796 5793 5789 5785 5781 5779 5776 5773 5770 5767 5765 5761 5757 5756 5755 5757 5759 5761 5764 5767 5770 5772 5773 5773 5772 5771 5769 5766 5763
5828 5824 5819 5815 5810 5807 5802 5798 5795 5794 5794 5794 5792 5791 5790 5788 5784 5780 5776 5773 5770 5766 5762 5759 5756 5753 5750 5747 5746 5747 5749 5751 5755 5760 5765 5769 5770 5771 5770 5769 5767 5764 5762
5813 5811 5808 5804 5800 5796 5791 5788 5785 5783 5785 5785 5785 5785 5784 5781 5778 5774 5771 5768 5764 5760 5757 5753 5749 5744 5742 5740 5734 5732 5737 5743 5748 5754 5759 5762 5764 5766 5766 5764 5762 5760 5759
5796 5796 5795 5791 5788 5786 5783 5781 5780 5778 5778 5779 5779 5778 5777 5774 5771 5768 5764 5761 5758 5754 5750 5747 5743 5737 5735 5733 5727 5721 5720 5727 5738 5750 5754 5756 5758 5760 5760 5759 5757 5755 5754
5782 5781 5782 5779 5778 5776 5774 5773 5771 5770 5769 5769 5769 5768 5769 5768 5765 5762 5760 5757 5753 5750 5746 5742 5739 5733 5729 5729 5726 5718 5711 5712 5721 5734 5742 5748 5752 5753 5752 5751 5751 5750 5749
5770 5772 5771 5769 5767 5766 5765 5762 5759 5756 5755 5759 5760 5761 5761 5760 5758 5756 5754 5751 5748 5745 5742 5740 5737 5732 5728 5723 5722 5720 5717 5715 5708 5714 5728 5737 5742 5743 5743 5744 5743 5743 5742
5761 5761 5761 5759 5756 5756 5754 5752 5750 5749 5749 5751 5752 5752 5751 5751 5751 5749 5747 5745 5742 5740 5738 5736 5733 5729 5725 5721 5718 5715 5712 5711 5709 5705 5709 5718 5727 5733 5736 5736 5736 5735 5734
5754 5753 5751 5748 5746 5746 5744 5743 5741 5739 5739 5738 5739 5739 5740 5741 5742 5742 5741 5738 5736 5734 5733 5731 5728 5725 5721 5719 5716 5712 5709 5706 5706 5704 5704 5708 5713 5721 5728 5729 5729 5727 5727